Regional Weather Roundup
Issued by NWS

Home | Current Version | Previous Version | Text Only | Print | Product List | Glossary Off
Versions: 1 2 3 4 5 6 7 8 9 10 11 12 13 14 15 16 17 18 19 20 21 22 23 24 25 26 27 28 29 30 31 32 33 34 35 36 37 38 39 40 41 42 43 44 45 46 47 48 49 50

817
ASUS43 KFSD 211602
RWRSD

WEATHER ROUNDUP FOR SOUTH DAKOTA
NATIONAL WEATHER SERVICE SIOUX FALLS SD
1100 AM CDT MON MAY 21 2018

NOTE: "FAIR" INDICATES FEW OR NO CLOUDS BELOW 12,000 FEET WITH NO
SIGNIFICANT WEATHER AND/OR OBSTRUCTIONS TO VISIBILITY.


SDZ001>005-009-010-012>017-211700-
NORTHWEST AND NORTH CENTRAL SOUTH DAKOTA

CITY           SKY/WX    TMP DP  RH WIND       PRES   REMARKS
FAITH            N/A     62  43  49 SE13      29.99F
MOBRIDGE       SUNNY     66  41  40 S10       29.99S
$$

SDZ012>016-024>037-041>051-057-063-072>074-211700-
SOUTHWEST AND SOUTH CENTRAL SOUTH DAKOTA

CITY           SKY/WX    TMP DP  RH WIND       PRES   REMARKS
RAPID CTY ARPT SUNNY     62  49  62 S16       29.97F
PIERRE         SUNNY     62  44  51 VRB6      30.00F
CUSTER         SUNNY     58  43  57 S8        30.02F
PHILIP         SUNNY     64  50  60 E5        29.98F
PINE RIDGE     SUNNY     66  51  58 S15G23    29.98F
SPEARFISH      FAIR      59  46  63 NE5       29.97F
WINNER         FAIR      66  45  46 VRB3      30.01F
$$

SDZ004>011-016>023-039-040-211700-
NORTHEAST SOUTH DAKOTA

CITY           SKY/WX    TMP DP  RH WIND       PRES   REMARKS
ABERDEEN       CLOUDY    64  53  67 S8        30.02F
WATERTOWN      CLOUDY    57  56  96 S8        30.03S
BROOKINGS      CLOUDY    57  54  89 S5        30.04F
SISSETON         N/A     60  52  74 SE8       30.03F
$$

SDZ017-020-022-023-036>040-048>070-211700-
SOUTHEAST SOUTH DAKOTA

CITY           SKY/WX    TMP DP  RH WIND       PRES   REMARKS
SIOUX FALLS    CLOUDY    58  56  93 SE6       30.03F
HURON          LGT RAIN  57  54  89 S5        30.03F FOG
CHAMBERLAIN    SUNNY     65  45  48 S5        30.02F
MITCHELL       CLOUDY    58  54  86 S3        30.04F
YANKTON        CLOUDY    59  53  80 SW5       30.04F
$$

ABBREVIATIONS USED IN REMARKS
   TC - TEMPERATURE IN CELSIUS
  WCI - WIND CHILL INDEX
   HX - HEAT INDEX
  VSB - VISIBILITY





USA.gov is the U.S. government's official web portal to all federal, state and local government web resources and services.